Weather History for Jamestown, ND

Change the Weather History Date:

Friday, October 7, 2011

  Actual Average Record
Temperature  
Mean Temperature 65 °F 48 °F  
Max Temperature 73 °F 60 °F 86 °F (1966)
Min Temperature 57 °F 36 °F 15 °F (1976)
Degree Days  
Heating Degree Days 0 17  
Month to date heating degree days 9 109  
Since 1 July heating degree days 236 427  
Cooling Degree Days 0 0  
Month to date cooling degree days 17 0  
Year to date cooling degree days 497 445  
Growing Degree Days 16 (Base 50)    
Moisture  
Dew Point 45 °F    
Average Humidity 49    
Maximum Humidity 78    
Minimum Humidity 19    
Precipitation  
Precipitation T in 0.06 in 1.01 in (1977)
Month to date precipitation 0.02 0.42  
Year to date precipitation 20.33 16.61  
Sea Level Pressure  
Sea Level Pressure 29.54 in    
Wind  
Wind Speed 24 mph (South)    
Max Wind Speed 45 mph    
Max Gust Speed 61 mph    
Visibility 10 miles    
Events      
T = Trace of Precipitation, MM = Missing Value Source: NWS Daily Summary

Daily Weather History Graph

Daily Weather History Graph

Search for Another Location

Airport:

Trip Planner

Search our weather history database for the weather conditions in past years. The results will help you decide how hot, cold, wet, or windy it might be!

Date:

Astronomy

Oct. 07, 2011 Rise Set
Actual Time 7:41 AM CDT 7:03 PM CDT
Civil Twilight 7:10 AM CDT 7:33 PM CDT
Nautical Twilight 6:35 AM CDT 8:08 PM CDT
Astronomical Twilight 6:00 AM CDT 8:43 PM CDT
Moon 4:58 PM CDT (10/7) 3:17 AM CDT (10/7)
Length of Visible Light 12h 22m
Length of Day
11h 21m
Waxing Gibbous, 83% of the Moon is Illuminated
Oct 7
Waxing Gibbous
Oct 11
Full
Oct 19
Last Quarter
Oct 26
New
Nov 2
First Quarter

Hourly Weather History & Observations

Time (CDT) Temp. Dew Point Humidity Pressure Visibility Wind Dir Wind Speed Gust Speed Precip Events Conditions
12:56 AM 64.0 °F 54.0 °F 70% 29.64 in 10.0 mi South 8.1 mph - 0.02 in   Overcast
1:56 AM 64.0 °F 52.0 °F 65% 29.59 in 10.0 mi SSE 12.7 mph - N/A   Mostly Cloudy
2:56 AM 64.9 °F 50.0 °F 58% 29.55 in 10.0 mi SE 19.6 mph 26.5 mph 0.00 in   Scattered Clouds
3:56 AM 63.0 °F 52.0 °F 67% 29.55 in 10.0 mi SSE 27.6 mph 43.7 mph N/A   Mostly Cloudy
4:56 AM 63.0 °F 52.0 °F 67% 29.53 in 10.0 mi SSE 20.7 mph 29.9 mph N/A   Clear
5:56 AM 62.1 °F 52.0 °F 70% 29.54 in 10.0 mi SSE 17.3 mph 29.9 mph N/A   Clear
6:56 AM 62.6 °F 53.6 °F 72% 29.53 in 10.0 mi South 20.7 mph 28.8 mph N/A   Clear
7:56 AM 62.1 °F 55.0 °F 78% 29.52 in 10.0 mi South 21.9 mph - N/A   Scattered Clouds
8:56 AM 63.0 °F 55.0 °F 75% 29.53 in 10.0 mi South 18.4 mph 24.2 mph N/A   Mostly Cloudy
9:56 AM 63.0 °F 55.0 °F 75% 29.52 in 10.0 mi South 19.6 mph 27.6 mph N/A   Partly Cloudy
10:56 AM 64.9 °F 54.0 °F 68% 29.51 in 10.0 mi South 20.7 mph 28.8 mph N/A   Partly Cloudy
11:56 AM 68.0 °F 36.0 °F 31% 29.49 in 10.0 mi South 21.9 mph 39.1 mph N/A   Clear
12:56 PM 70.0 °F 30.0 °F 23% 29.46 in 10.0 mi South 35.7 mph 47.2 mph N/A   Clear
1:56 PM 71.1 °F 28.9 °F 21% 29.44 in 10.0 mi SSW 28.8 mph 44.9 mph N/A   Clear
2:56 PM 73.0 °F 28.9 °F 20% 29.44 in 10.0 mi SSW 38.0 mph 52.9 mph N/A   Clear
3:56 PM 72.0 °F 32.0 °F 23% 29.45 in 9.0 mi SSW 42.6 mph 57.5 mph N/A   Clear
4:56 PM 72.0 °F 34.0 °F 25% 29.46 in 10.0 mi SSW 33.4 mph 56.4 mph N/A   Clear
5:56 PM 71.1 °F 37.0 °F 29% 29.48 in 10.0 mi SSW 31.1 mph 46.0 mph N/A   Clear
6:56 PM 68.0 °F 41.0 °F 37% 29.53 in 10.0 mi SW 21.9 mph 29.9 mph N/A   Scattered Clouds
7:56 PM 64.9 °F 44.1 °F 47% 29.58 in 10.0 mi SW 25.3 mph 32.2 mph N/A   Clear
8:56 PM 63.0 °F 44.1 °F 50% 29.60 in 10.0 mi SW 21.9 mph 32.2 mph N/A   Clear
9:56 PM 62.1 °F 45.0 °F 53% 29.62 in 10.0 mi SW 21.9 mph 31.1 mph N/A   Clear
10:56 PM 60.1 °F 46.0 °F 60% 29.65 in 10.0 mi SW 20.7 mph 27.6 mph N/A   Clear
11:56 PM 59.0 °F 46.9 °F 64% 29.70 in 10.0 mi WSW 19.6 mph 27.6 mph N/A   Clear